Retour au catalogue

GORIZONT 6

ActifCommunicationsGEO
NORAD 13624·PAYLOAD·🇷🇺 Russia

Lancé Oct 20, 1982 depuis Baikonur Cosmodrome

Loading…

TLE

FraisSource: Space-Track

Époque: Sep 14, 2026, 13:16 UTC

1 13624U 82103A   26257.55322800  .00000117  00000-0  00000-0 0  9996
2 13624   7.1514 301.3213 0003164 336.6703 120.7013  1.00336941121848

Suivez GORIZONT 6 en temps réel avec AllMySat

Download on the App Store